<?xml version="1.0" encoding="UTF-8"?>
<gpx
version="1.1"
creator="Kashmir3D 9.340 - http://www.kashmir3d.com"
xmlns:xsi="http://www.w3.org/2001/XMLSchema-instance"
xmlns="http://www.topografix.com/GPX/1/1"
xmlns:kashmir3d="http://www.kashmir3d.com/namespace/kashmir3d"
xsi:schemaLocation="http://www.topografix.com/GPX/1/1 http://www.topografix.com/GPX/1/1/gpx.xsd
	http://www.kashmir3d.com/namespace/kashmir3d http://www.kashmir3d.com/namespace/kashmir3d.xsd">
<trk>
 <name>MIGITAGATAKE.KML(右田ヶ岳)</name>
 <number>1</number>
 <extensions>
 <kashmir3d:line_color>0000ff</kashmir3d:line_color>
 <kashmir3d:line_size>3</kashmir3d:line_size>
 <kashmir3d:line_style>1</kashmir3d:line_style>
 <kashmir3d:icon>901001</kashmir3d:icon>
 </extensions>
<trkseg>
<trkpt lat="34.076423" lon="131.562054">
 <ele>13.4</ele>
 <time>2020-03-24T14:37:59Z</time>
</trkpt>
<trkpt lat="34.076346" lon="131.561914">
 <ele>13.9</ele>
 <time>2020-03-24T14:37:59Z</time>
</trkpt>
<trkpt lat="34.076346" lon="131.561635">
 <ele>13.8</ele>
 <time>2020-03-24T14:37:59Z</time>
</trkpt>
<trkpt lat="34.076577" lon="131.561474">
 <ele>13.7</ele>
 <time>2020-03-24T14:37:59Z</time>
</trkpt>
<trkpt lat="34.076766" lon="131.561163">
 <ele>13.9</ele>
 <time>2020-03-24T14:37:59Z</time>
</trkpt>
<trkpt lat="34.076929" lon="131.561002">
 <ele>14.3</ele>
 <time>2020-03-24T14:37:59Z</time>
</trkpt>
<trkpt lat="34.077401" lon="131.560745">
 <ele>14.8</ele>
 <time>2020-03-24T14:37:59Z</time>
</trkpt>
<trkpt lat="34.077659" lon="131.560648">
 <ele>16.4</ele>
 <time>2020-03-24T14:37:59Z</time>
</trkpt>
<trkpt lat="34.077796" lon="131.560541">
 <ele>17.4</ele>
 <time>2020-03-24T14:38:00Z</time>
</trkpt>
<trkpt lat="34.077839" lon="131.560326">
 <ele>19</ele>
 <time>2020-03-24T14:38:00Z</time>
</trkpt>
<trkpt lat="34.078019" lon="131.560123">
 <ele>19.5</ele>
 <time>2020-03-24T14:38:00Z</time>
</trkpt>
<trkpt lat="34.078260" lon="131.559940">
 <ele>27.1</ele>
 <time>2020-03-24T14:38:00Z</time>
</trkpt>
<trkpt lat="34.078371" lon="131.559865">
 <ele>30.8</ele>
 <time>2020-03-24T14:38:00Z</time>
</trkpt>
<trkpt lat="34.078500" lon="131.559822">
 <ele>33.8</ele>
 <time>2020-03-24T14:38:00Z</time>
</trkpt>
<trkpt lat="34.078637" lon="131.559758">
 <ele>39.4</ele>
 <time>2020-03-24T14:38:00Z</time>
</trkpt>
<trkpt lat="34.078835" lon="131.559651">
 <ele>46.1</ele>
 <time>2020-03-24T14:38:00Z</time>
</trkpt>
<trkpt lat="34.078955" lon="131.559640">
 <ele>51.3</ele>
 <time>2020-03-24T14:38:00Z</time>
</trkpt>
<trkpt lat="34.079041" lon="131.559672">
 <ele>58.8</ele>
 <time>2020-03-24T14:38:00Z</time>
</trkpt>
<trkpt lat="34.079127" lon="131.559683">
 <ele>63.9</ele>
 <time>2020-03-24T14:38:01Z</time>
</trkpt>
<trkpt lat="34.079221" lon="131.559726">
 <ele>72.6</ele>
 <time>2020-03-24T14:38:01Z</time>
</trkpt>
<trkpt lat="34.079290" lon="131.559876">
 <ele>76.5</ele>
 <time>2020-03-24T14:38:01Z</time>
</trkpt>
<trkpt lat="34.079375" lon="131.559972">
 <ele>82.7</ele>
 <time>2020-03-24T14:38:01Z</time>
</trkpt>
<trkpt lat="34.079358" lon="131.560133">
 <ele>87.1</ele>
 <time>2020-03-24T14:38:01Z</time>
</trkpt>
<trkpt lat="34.079521" lon="131.560058">
 <ele>93.2</ele>
 <time>2020-03-24T14:38:01Z</time>
</trkpt>
<trkpt lat="34.079624" lon="131.560005">
 <ele>98.6</ele>
 <time>2020-03-24T14:38:01Z</time>
</trkpt>
<trkpt lat="34.079745" lon="131.560026">
 <ele>103.9</ele>
 <time>2020-03-24T14:38:01Z</time>
</trkpt>
<trkpt lat="34.079779" lon="131.559887">
 <ele>106.7</ele>
 <time>2020-03-24T14:38:01Z</time>
</trkpt>
<trkpt lat="34.079899" lon="131.559747">
 <ele>112.6</ele>
 <time>2020-03-24T14:38:02Z</time>
</trkpt>
<trkpt lat="34.079959" lon="131.559651">
 <ele>117.1</ele>
 <time>2020-03-24T14:38:02Z</time>
</trkpt>
<trkpt lat="34.080062" lon="131.559597">
 <ele>125.4</ele>
 <time>2020-03-24T14:38:02Z</time>
</trkpt>
<trkpt lat="34.080122" lon="131.559608">
 <ele>126.7</ele>
 <time>2020-03-24T14:38:02Z</time>
</trkpt>
<trkpt lat="34.080182" lon="131.559468">
 <ele>138.4</ele>
 <time>2020-03-24T14:38:02Z</time>
</trkpt>
<trkpt lat="34.080242" lon="131.559329">
 <ele>141.4</ele>
 <time>2020-03-24T14:38:02Z</time>
</trkpt>
<trkpt lat="34.080311" lon="131.559414">
 <ele>150.4</ele>
 <time>2020-03-24T14:38:02Z</time>
</trkpt>
<trkpt lat="34.080371" lon="131.559414">
 <ele>157</ele>
 <time>2020-03-24T14:38:02Z</time>
</trkpt>
<trkpt lat="34.080448" lon="131.559286">
 <ele>159.8</ele>
 <time>2020-03-24T14:38:02Z</time>
</trkpt>
<trkpt lat="34.080526" lon="131.559414">
 <ele>170.2</ele>
 <time>2020-03-24T14:38:02Z</time>
</trkpt>
<trkpt lat="34.080689" lon="131.559329">
 <ele>186.7</ele>
 <time>2020-03-24T14:38:03Z</time>
</trkpt>
<trkpt lat="34.080800" lon="131.559221">
 <ele>190.6</ele>
 <time>2020-03-24T14:38:03Z</time>
</trkpt>
<trkpt lat="34.080946" lon="131.559157">
 <ele>184.1</ele>
 <time>2020-03-24T14:38:03Z</time>
</trkpt>
<trkpt lat="34.081023" lon="131.558975">
 <ele>176.3</ele>
 <time>2020-03-24T14:38:03Z</time>
</trkpt>
<trkpt lat="34.081075" lon="131.558803">
 <ele>171.3</ele>
 <time>2020-03-24T14:38:03Z</time>
</trkpt>
<trkpt lat="34.081212" lon="131.558696">
 <ele>166.2</ele>
 <time>2020-03-24T14:38:03Z</time>
</trkpt>
<trkpt lat="34.081367" lon="131.558599">
 <ele>164</ele>
 <time>2020-03-24T14:38:03Z</time>
</trkpt>
<trkpt lat="34.081530" lon="131.558492">
 <ele>163.2</ele>
 <time>2020-03-24T14:38:03Z</time>
</trkpt>
<trkpt lat="34.081624" lon="131.558492">
 <ele>164.6</ele>
 <time>2020-03-24T14:38:03Z</time>
</trkpt>
<trkpt lat="34.081770" lon="131.558470">
 <ele>166.6</ele>
 <time>2020-03-24T14:38:03Z</time>
</trkpt>
<trkpt lat="34.081959" lon="131.558513">
 <ele>169.4</ele>
 <time>2020-03-24T14:38:04Z</time>
</trkpt>
<trkpt lat="34.082139" lon="131.558556">
 <ele>178.1</ele>
 <time>2020-03-24T14:38:04Z</time>
</trkpt>
<trkpt lat="34.082234" lon="131.558621">
 <ele>184.7</ele>
 <time>2020-03-24T14:38:04Z</time>
</trkpt>
<trkpt lat="34.082371" lon="131.558621">
 <ele>195.3</ele>
 <time>2020-03-24T14:38:04Z</time>
</trkpt>
<trkpt lat="34.082508" lon="131.558717">
 <ele>211.4</ele>
 <time>2020-03-24T14:38:04Z</time>
</trkpt>
<trkpt lat="34.082594" lon="131.558717">
 <ele>217.7</ele>
 <time>2020-03-24T14:38:04Z</time>
</trkpt>
<trkpt lat="34.082654" lon="131.558792">
 <ele>222.3</ele>
 <time>2020-03-24T14:38:04Z</time>
</trkpt>
<trkpt lat="34.082723" lon="131.558803">
 <ele>224.2</ele>
 <time>2020-03-24T14:38:04Z</time>
</trkpt>
<trkpt lat="34.082723" lon="131.558653">
 <ele>227.2</ele>
 <time>2020-03-24T14:38:04Z</time>
</trkpt>
<trkpt lat="34.082834" lon="131.558524">
 <ele>236.7</ele>
 <time>2020-03-24T14:38:05Z</time>
</trkpt>
<trkpt lat="34.082834" lon="131.558460">
 <ele>238.4</ele>
 <time>2020-03-24T14:38:05Z</time>
</trkpt>
<trkpt lat="34.082929" lon="131.558352">
 <ele>248.9</ele>
 <time>2020-03-24T14:38:05Z</time>
</trkpt>
<trkpt lat="34.082980" lon="131.558202">
 <ele>254.3</ele>
 <time>2020-03-24T14:38:05Z</time>
</trkpt>
<trkpt lat="34.083092" lon="131.558148">
 <ele>258.3</ele>
 <time>2020-03-24T14:38:05Z</time>
</trkpt>
<trkpt lat="34.083152" lon="131.558020">
 <ele>266.8</ele>
 <time>2020-03-24T14:38:05Z</time>
</trkpt>
<trkpt lat="34.083221" lon="131.557934">
 <ele>268.2</ele>
 <time>2020-03-24T14:38:05Z</time>
</trkpt>
<trkpt lat="34.083315" lon="131.557837">
 <ele>268.5</ele>
 <time>2020-03-24T14:38:05Z</time>
</trkpt>
<trkpt lat="34.083444" lon="131.557752">
 <ele>268.8</ele>
 <time>2020-03-24T14:38:05Z</time>
</trkpt>
<trkpt lat="34.083633" lon="131.557773">
 <ele>269.2</ele>
 <time>2020-03-24T14:38:06Z</time>
</trkpt>
<trkpt lat="34.083787" lon="131.557784">
 <ele>279.4</ele>
 <time>2020-03-24T14:38:06Z</time>
</trkpt>
<trkpt lat="34.083882" lon="131.557730">
 <ele>285.6</ele>
 <time>2020-03-24T14:38:06Z</time>
</trkpt>
<trkpt lat="34.084027" lon="131.557634">
 <ele>292.7</ele>
 <time>2020-03-24T14:38:06Z</time>
</trkpt>
<trkpt lat="34.084216" lon="131.557526">
 <ele>298.6</ele>
 <time>2020-03-24T14:38:06Z</time>
</trkpt>
<trkpt lat="34.084311" lon="131.557408">
 <ele>304.9</ele>
 <time>2020-03-24T14:38:06Z</time>
</trkpt>
<trkpt lat="34.084379" lon="131.557258">
 <ele>310.3</ele>
 <time>2020-03-24T14:38:06Z</time>
</trkpt>
<trkpt lat="34.084508" lon="131.557161">
 <ele>317.2</ele>
 <time>2020-03-24T14:38:06Z</time>
</trkpt>
<trkpt lat="34.084791" lon="131.557076">
 <ele>330.8</ele>
 <time>2020-03-24T14:38:06Z</time>
</trkpt>
<trkpt lat="34.084903" lon="131.556979">
 <ele>339.2</ele>
 <time>2020-03-24T14:38:06Z</time>
</trkpt>
<trkpt lat="34.085040" lon="131.556893">
 <ele>346.7</ele>
 <time>2020-03-24T14:38:07Z</time>
</trkpt>
<trkpt lat="34.085160" lon="131.556893">
 <ele>352.6</ele>
 <time>2020-03-24T14:38:07Z</time>
</trkpt>
<trkpt lat="34.085229" lon="131.556807">
 <ele>358.5</ele>
 <time>2020-03-24T14:38:07Z</time>
</trkpt>
<trkpt lat="34.085298" lon="131.556700">
 <ele>366.1</ele>
 <time>2020-03-24T14:38:07Z</time>
</trkpt>
<trkpt lat="34.085392" lon="131.556754">
 <ele>367.4</ele>
 <time>2020-03-24T14:38:07Z</time>
</trkpt>
<trkpt lat="34.085590" lon="131.556668">
 <ele>367.7</ele>
 <time>2020-03-24T14:38:07Z</time>
</trkpt>
<trkpt lat="34.085701" lon="131.556614">
 <ele>369</ele>
 <time>2020-03-24T14:38:07Z</time>
</trkpt>
<trkpt lat="34.085916" lon="131.556668">
 <ele>376.9</ele>
 <time>2020-03-24T14:38:07Z</time>
</trkpt>
<trkpt lat="34.086062" lon="131.556604">
 <ele>385.5</ele>
 <time>2020-03-24T14:38:07Z</time>
</trkpt>
<trkpt lat="34.086216" lon="131.556657">
 <ele>396.5</ele>
 <time>2020-03-24T14:38:07Z</time>
</trkpt>
<trkpt lat="34.086268" lon="131.556743">
 <ele>407</ele>
 <time>2020-03-24T14:38:08Z</time>
</trkpt>
<trkpt lat="34.086233" lon="131.556840">
 <ele>409.2</ele>
 <time>2020-03-24T14:38:08Z</time>
</trkpt>
<trkpt lat="34.086371" lon="131.556893">
 <ele>419.6</ele>
 <time>2020-03-24T14:38:08Z</time>
</trkpt>
<trkpt lat="34.086474" lon="131.556904">
 <ele>424.8</ele>
 <time>2020-03-24T14:38:08Z</time>
</trkpt>
<trkpt lat="34.086550" lon="131.556950">
 <ele>425.9</ele>
 <time>2020-03-24T14:38:08Z</time>
</trkpt>
<trkpt lat="34.086474" lon="131.556904">
 <ele>424.8</ele>
 <time>2020-03-24T14:38:08Z</time>
</trkpt>
<trkpt lat="34.086371" lon="131.556893">
 <ele>419.6</ele>
 <time>2020-03-24T14:38:08Z</time>
</trkpt>
<trkpt lat="34.086233" lon="131.556840">
 <ele>409.2</ele>
 <time>2020-03-24T14:38:08Z</time>
</trkpt>
<trkpt lat="34.086268" lon="131.556743">
 <ele>407</ele>
 <time>2020-03-24T14:38:08Z</time>
</trkpt>
<trkpt lat="34.086216" lon="131.556657">
 <ele>396.5</ele>
 <time>2020-03-24T14:38:09Z</time>
</trkpt>
<trkpt lat="34.086062" lon="131.556604">
 <ele>385.5</ele>
 <time>2020-03-24T14:38:09Z</time>
</trkpt>
<trkpt lat="34.085916" lon="131.556668">
 <ele>376.9</ele>
 <time>2020-03-24T14:38:09Z</time>
</trkpt>
<trkpt lat="34.085701" lon="131.556614">
 <ele>369</ele>
 <time>2020-03-24T14:38:09Z</time>
</trkpt>
<trkpt lat="34.085590" lon="131.556668">
 <ele>367.7</ele>
 <time>2020-03-24T14:38:09Z</time>
</trkpt>
<trkpt lat="34.085392" lon="131.556754">
 <ele>367.4</ele>
 <time>2020-03-24T14:38:09Z</time>
</trkpt>
<trkpt lat="34.085298" lon="131.556700">
 <ele>366.1</ele>
 <time>2020-03-24T14:38:09Z</time>
</trkpt>
<trkpt lat="34.085229" lon="131.556807">
 <ele>358.5</ele>
 <time>2020-03-24T14:38:09Z</time>
</trkpt>
<trkpt lat="34.085160" lon="131.556893">
 <ele>352.6</ele>
 <time>2020-03-24T14:38:09Z</time>
</trkpt>
<trkpt lat="34.085040" lon="131.556893">
 <ele>346.7</ele>
 <time>2020-03-24T14:38:09Z</time>
</trkpt>
<trkpt lat="34.084903" lon="131.556979">
 <ele>339.2</ele>
 <time>2020-03-24T14:38:10Z</time>
</trkpt>
<trkpt lat="34.084791" lon="131.557076">
 <ele>330.8</ele>
 <time>2020-03-24T14:38:10Z</time>
</trkpt>
<trkpt lat="34.084508" lon="131.557161">
 <ele>317.2</ele>
 <time>2020-03-24T14:38:10Z</time>
</trkpt>
<trkpt lat="34.084379" lon="131.557258">
 <ele>310.3</ele>
 <time>2020-03-24T14:38:10Z</time>
</trkpt>
<trkpt lat="34.084311" lon="131.557408">
 <ele>304.9</ele>
 <time>2020-03-24T14:38:10Z</time>
</trkpt>
<trkpt lat="34.084216" lon="131.557526">
 <ele>298.6</ele>
 <time>2020-03-24T14:38:10Z</time>
</trkpt>
<trkpt lat="34.084027" lon="131.557634">
 <ele>292.7</ele>
 <time>2020-03-24T14:38:10Z</time>
</trkpt>
<trkpt lat="34.083882" lon="131.557730">
 <ele>285.6</ele>
 <time>2020-03-24T14:38:10Z</time>
</trkpt>
<trkpt lat="34.083787" lon="131.557784">
 <ele>279.4</ele>
 <time>2020-03-24T14:38:10Z</time>
</trkpt>
<trkpt lat="34.083633" lon="131.557773">
 <ele>269.2</ele>
 <time>2020-03-24T14:38:10Z</time>
</trkpt>
<trkpt lat="34.083444" lon="131.557752">
 <ele>268.8</ele>
 <time>2020-03-24T14:38:11Z</time>
</trkpt>
<trkpt lat="34.083315" lon="131.557837">
 <ele>268.5</ele>
 <time>2020-03-24T14:38:11Z</time>
</trkpt>
<trkpt lat="34.083221" lon="131.557934">
 <ele>268.2</ele>
 <time>2020-03-24T14:38:11Z</time>
</trkpt>
<trkpt lat="34.083152" lon="131.558020">
 <ele>266.8</ele>
 <time>2020-03-24T14:38:11Z</time>
</trkpt>
<trkpt lat="34.083092" lon="131.558148">
 <ele>258.3</ele>
 <time>2020-03-24T14:38:11Z</time>
</trkpt>
<trkpt lat="34.082980" lon="131.558202">
 <ele>254.3</ele>
 <time>2020-03-24T14:38:11Z</time>
</trkpt>
<trkpt lat="34.082929" lon="131.558352">
 <ele>248.9</ele>
 <time>2020-03-24T14:38:11Z</time>
</trkpt>
<trkpt lat="34.082834" lon="131.558460">
 <ele>238.4</ele>
 <time>2020-03-24T14:38:11Z</time>
</trkpt>
<trkpt lat="34.082834" lon="131.558524">
 <ele>236.7</ele>
 <time>2020-03-24T14:38:11Z</time>
</trkpt>
<trkpt lat="34.082723" lon="131.558653">
 <ele>227.2</ele>
 <time>2020-03-24T14:38:12Z</time>
</trkpt>
<trkpt lat="34.082723" lon="131.558803">
 <ele>224.2</ele>
 <time>2020-03-24T14:38:12Z</time>
</trkpt>
<trkpt lat="34.082654" lon="131.558792">
 <ele>222.3</ele>
 <time>2020-03-24T14:38:12Z</time>
</trkpt>
<trkpt lat="34.082594" lon="131.558717">
 <ele>217.7</ele>
 <time>2020-03-24T14:38:12Z</time>
</trkpt>
<trkpt lat="34.082508" lon="131.558717">
 <ele>211.4</ele>
 <time>2020-03-24T14:38:12Z</time>
</trkpt>
<trkpt lat="34.082371" lon="131.558621">
 <ele>195.3</ele>
 <time>2020-03-24T14:38:12Z</time>
</trkpt>
<trkpt lat="34.082234" lon="131.558621">
 <ele>184.7</ele>
 <time>2020-03-24T14:38:12Z</time>
</trkpt>
<trkpt lat="34.082139" lon="131.558556">
 <ele>178.1</ele>
 <time>2020-03-24T14:38:12Z</time>
</trkpt>
<trkpt lat="34.081959" lon="131.558513">
 <ele>169.4</ele>
 <time>2020-03-24T14:38:12Z</time>
</trkpt>
<trkpt lat="34.081770" lon="131.558470">
 <ele>166.6</ele>
 <time>2020-03-24T14:38:13Z</time>
</trkpt>
<trkpt lat="34.081624" lon="131.558492">
 <ele>164.6</ele>
 <time>2020-03-24T14:38:13Z</time>
</trkpt>
<trkpt lat="34.081530" lon="131.558492">
 <ele>163.2</ele>
 <time>2020-03-24T14:38:13Z</time>
</trkpt>
<trkpt lat="34.081367" lon="131.558599">
 <ele>164</ele>
 <time>2020-03-24T14:38:13Z</time>
</trkpt>
<trkpt lat="34.081212" lon="131.558696">
 <ele>166.2</ele>
 <time>2020-03-24T14:38:13Z</time>
</trkpt>
<trkpt lat="34.081075" lon="131.558803">
 <ele>171.3</ele>
 <time>2020-03-24T14:38:13Z</time>
</trkpt>
<trkpt lat="34.081023" lon="131.558975">
 <ele>176.3</ele>
 <time>2020-03-24T14:38:13Z</time>
</trkpt>
<trkpt lat="34.080946" lon="131.559157">
 <ele>184.1</ele>
 <time>2020-03-24T14:38:13Z</time>
</trkpt>
<trkpt lat="34.080800" lon="131.559221">
 <ele>190.6</ele>
 <time>2020-03-24T14:38:13Z</time>
</trkpt>
<trkpt lat="34.080689" lon="131.559329">
 <ele>186.7</ele>
 <time>2020-03-24T14:38:13Z</time>
</trkpt>
<trkpt lat="34.080526" lon="131.559414">
 <ele>170.2</ele>
 <time>2020-03-24T14:38:14Z</time>
</trkpt>
<trkpt lat="34.080448" lon="131.559286">
 <ele>159.8</ele>
 <time>2020-03-24T14:38:14Z</time>
</trkpt>
<trkpt lat="34.080371" lon="131.559414">
 <ele>157</ele>
 <time>2020-03-24T14:38:14Z</time>
</trkpt>
<trkpt lat="34.080311" lon="131.559414">
 <ele>150.4</ele>
 <time>2020-03-24T14:38:14Z</time>
</trkpt>
<trkpt lat="34.080242" lon="131.559329">
 <ele>141.4</ele>
 <time>2020-03-24T14:38:14Z</time>
</trkpt>
<trkpt lat="34.080182" lon="131.559468">
 <ele>138.4</ele>
 <time>2020-03-24T14:38:14Z</time>
</trkpt>
<trkpt lat="34.080122" lon="131.559608">
 <ele>126.7</ele>
 <time>2020-03-24T14:38:14Z</time>
</trkpt>
<trkpt lat="34.080062" lon="131.559597">
 <ele>125.4</ele>
 <time>2020-03-24T14:38:14Z</time>
</trkpt>
<trkpt lat="34.079959" lon="131.559651">
 <ele>117.1</ele>
 <time>2020-03-24T14:38:14Z</time>
</trkpt>
<trkpt lat="34.079899" lon="131.559747">
 <ele>112.6</ele>
 <time>2020-03-24T14:38:14Z</time>
</trkpt>
<trkpt lat="34.079779" lon="131.559887">
 <ele>106.7</ele>
 <time>2020-03-24T14:38:15Z</time>
</trkpt>
<trkpt lat="34.079745" lon="131.560026">
 <ele>103.9</ele>
 <time>2020-03-24T14:38:15Z</time>
</trkpt>
<trkpt lat="34.079624" lon="131.560005">
 <ele>98.6</ele>
 <time>2020-03-24T14:38:15Z</time>
</trkpt>
<trkpt lat="34.079521" lon="131.560058">
 <ele>93.2</ele>
 <time>2020-03-24T14:38:15Z</time>
</trkpt>
<trkpt lat="34.079358" lon="131.560133">
 <ele>87.1</ele>
 <time>2020-03-24T14:38:15Z</time>
</trkpt>
<trkpt lat="34.079375" lon="131.559972">
 <ele>82.7</ele>
 <time>2020-03-24T14:38:15Z</time>
</trkpt>
<trkpt lat="34.079290" lon="131.559876">
 <ele>76.5</ele>
 <time>2020-03-24T14:38:15Z</time>
</trkpt>
<trkpt lat="34.079221" lon="131.559726">
 <ele>72.6</ele>
 <time>2020-03-24T14:38:15Z</time>
</trkpt>
<trkpt lat="34.079127" lon="131.559683">
 <ele>63.9</ele>
 <time>2020-03-24T14:38:15Z</time>
</trkpt>
<trkpt lat="34.079041" lon="131.559672">
 <ele>58.8</ele>
 <time>2020-03-24T14:38:15Z</time>
</trkpt>
<trkpt lat="34.078955" lon="131.559640">
 <ele>51.3</ele>
 <time>2020-03-24T14:38:16Z</time>
</trkpt>
<trkpt lat="34.078835" lon="131.559651">
 <ele>46.1</ele>
 <time>2020-03-24T14:38:16Z</time>
</trkpt>
<trkpt lat="34.078637" lon="131.559758">
 <ele>39.4</ele>
 <time>2020-03-24T14:38:16Z</time>
</trkpt>
<trkpt lat="34.078500" lon="131.559822">
 <ele>33.8</ele>
 <time>2020-03-24T14:38:16Z</time>
</trkpt>
<trkpt lat="34.078371" lon="131.559865">
 <ele>30.8</ele>
 <time>2020-03-24T14:38:16Z</time>
</trkpt>
<trkpt lat="34.078260" lon="131.559940">
 <ele>27.1</ele>
 <time>2020-03-24T14:38:16Z</time>
</trkpt>
<trkpt lat="34.078019" lon="131.560123">
 <ele>19.5</ele>
 <time>2020-03-24T14:38:16Z</time>
</trkpt>
<trkpt lat="34.077839" lon="131.560326">
 <ele>19</ele>
 <time>2020-03-24T14:38:16Z</time>
</trkpt>
<trkpt lat="34.077796" lon="131.560541">
 <ele>17.4</ele>
 <time>2020-03-24T14:38:16Z</time>
</trkpt>
<trkpt lat="34.077659" lon="131.560648">
 <ele>16.4</ele>
 <time>2020-03-24T14:38:17Z</time>
</trkpt>
<trkpt lat="34.077401" lon="131.560745">
 <ele>14.8</ele>
 <time>2020-03-24T14:38:17Z</time>
</trkpt>
<trkpt lat="34.076929" lon="131.561002">
 <ele>14.3</ele>
 <time>2020-03-24T14:38:17Z</time>
</trkpt>
<trkpt lat="34.076766" lon="131.561163">
 <ele>13.9</ele>
 <time>2020-03-24T14:38:17Z</time>
</trkpt>
<trkpt lat="34.076577" lon="131.561474">
 <ele>13.7</ele>
 <time>2020-03-24T14:38:17Z</time>
</trkpt>
<trkpt lat="34.076346" lon="131.561635">
 <ele>13.8</ele>
 <time>2020-03-24T14:38:17Z</time>
</trkpt>
<trkpt lat="34.076346" lon="131.561914">
 <ele>13.9</ele>
 <time>2020-03-24T14:38:17Z</time>
</trkpt>
<trkpt lat="34.076423" lon="131.562054">
 <ele>13.4</ele>
 <time>2020-03-24T14:38:17Z</time>
</trkpt>
</trkseg>
</trk>
</gpx>

